Regional Weather Roundup
Issued by NWS

Home | Current Version | Previous Version | Text Only | Print | Product List | Glossary Off
Versions: 1 2 3 4 5 6 7 8 9 10 11 12 13 14 15 16 17 18 19 20 21 22 23 24 25 26 27 28 29 30 31 32 33 34 35 36 37 38 39 40 41 42 43 44 45 46 47 48 49 50

000
ASUS44 KMEG 300310
RWRTN
TENNESSEE HOURLY STATE WEATHER ROUNDUP
NATIONAL WEATHER SERVICE MEMPHIS TN
1000 PM CDT WED MAR 29 2017

TNZ002-004-019-021-049-052-054-088>092-300400-
WEST TENNESSEE

CITY           SKY/WX    TMP DP  RH WIND       PRES   REMARKS
MEMPHIS INTL   CLOUDY    75  57  53 SE7       29.80F
NWS MEMPHIS      N/A     73 N/A N/A MISG        N/A
JACKSON        CLOUDY    74  58  57 S5        29.84F
DYERSBURG      MOCLDY    72  60  66 S3        29.83S
SOMERVILLE     CLEAR     73  59  60 VRB5      29.81F
BOLIVAR        PTCLDY    72  59  64 SE5       29.84S
PARIS          CLEAR     70  54  56 S9        29.86S
HUNTINGDON     MOCLDY    73  57  56 S6        29.85S
SAVANNAH       PTCLDY    70  57  64 SE5       29.86F
$$

TNZ008-025-027-028-033-062-065-066-300400-
NORTH MIDDLE TENNESSEE

CITY           SKY/WX    TMP DP  RH WIND       PRES   REMARKS
NASHVILLE      MOCLDY    73  58  59 S7        29.90S
PORTLAND       CLOUDY    70  55  60 SE3       29.91F
CLARKSVILLE    CLOUDY    68  57  68 SE7       29.87S
SMYRNA         MOCLDY    67  60  78 SE3       29.91S
COOKEVILLE     MOCLDY    66  55  68 CALM      29.94R
GALLATIN       CLOUDY    68  55  64 CALM      29.93F
CROSSVILLE     CLEAR     65  51  60 SE5       29.99S
$$

TNZ061-075-076-078-094-096-097-300400-
SOUTH MIDDLE TENNESSEE

CITY           SKY/WX    TMP DP  RH WIND       PRES   REMARKS
FAYETTEVILLE   CLEAR     68  59  73 SE6       29.92F
TULLAHOMA        N/A     72  55  56 S7        29.94S
WINCHESTER     CLEAR     66  57  72 S7        29.94S
MCMINNVILLE    CLEAR     70  57  64 CALM      29.94S
COLUMBIA       CLEAR     68  66  94 S3        29.89S
SHELBYVILLE    CLEAR     72  61  68 SE5       29.92S
$$

TNZ017-018-042-046-047-300400-
NORTHEAST TENNESSEE

CITY           SKY/WX    TMP DP  RH WIND       PRES   REMARKS
TRI CITIES     CLEAR     55  48  77 CALM      30.03S
ELIZABETHTON   CLEAR     57  48  72 VRB5      30.04S
$$

TNZ012-013-036-069-073-074-300400-
CENTRAL EAST TENNESSEE

CITY           SKY/WX    TMP DP  RH WIND       PRES   REMARKS
KNOXVILLE      NOT AVBL
OAK RIDGE      CLEAR     63  52  67 CALM      29.99S
DOWNTOWN KNOXV CLEAR     57  55  94 CALM      29.98S
GATLINBURG     CLEAR     59  48  67 CALM      29.99S
MORRISTOWN     CLEAR     63  52  67 CALM      30.00S
JACKSBORO      CLEAR     57  52  82 CALM      30.02R
$$

TNZ083-085-099-300400-
SOUTHEAST TENNESSEE

CITY           SKY/WX    TMP DP  RH WIND       PRES   REMARKS
CHATTANOOGA    PTCLDY    66  58  75 W3        29.96S
$$

SKY/WX REPORTED AS FAIR MEANS FEW OR NO CLOUDS BELOW
12 THOUSAND FEET.




USA.gov is the U.S. government's official web portal to all federal, state and local government web resources and services.